User: anonymous   Login
Location: Mt. Cuba Astronomical Observatory
(39.8100°N, 75.6300°W)
Time: 09:11:35
(UTC-05:00)
Language:

Cosmos 2058 - Orbit

View from above orbital plane
View from above orbital plane
View from above satellite
View from above satellite

Ground track
Ground track

The orbit data is extracted from the following two-line orbital elements,

1 20465U 90010A   14330.16623033  .00002907  00000-0  25970-3 0  2887
2 20465 082.4924 064.9588 0016212 193.3693 166.7101 14.95493469345619
Epoch (UTC): 26 November 2014 03:59:22
Eccentricity: 0.0016212
inclination: 82.4924°
perigee height: 569 km
apogee height: 592 km
right ascension of ascending node: 64.9588°
argument of perigee: 193.3693°
revolutions per day: 14.95493469
mean anomaly at epoch: 166.7101°
orbit number at epoch: 34561

The dashed part of the orbit path shows where the satellite is in the earth's shadow,  

DLR